• In Latvia
  • List of Countries
  • For 7 days
  • Water Temperature
  • Satellite Maps
  • Weather Map
  • Weather Widgets
  • user-avatar
    Login

    Hourly Weather Andora

    Today, 26 February, Sunday

    Time Temperature Precipitation Wind Pressure Humidity
    00:00 -1°C° 0 mm 1 mps 623 mmHg 79%
    01:00 -2°C° 0 mm 1 mps 623 mmHg 77%
    02:00 -2°C° 0 mm 1 mps 623 mmHg 74%
    03:00 -2°C° 0 mm 1 mps 623 mmHg 72%
    04:00 -2°C° 0 mm 1 mps 623 mmHg 72%
    05:00 -2°C° 0 mm 1 mps 623 mmHg 72%
    06:00 -2°C° 0 mm 1 mps 622 mmHg 71%
    07:00 0°C° 0 mm 1 mps 624 mmHg 66%
    08:00 +3°C° 0 mm 1 mps 625 mmHg 60%
    09:00 +5°C° 0 mm 1 mps 626 mmHg 55%
    10:00 +7°C° 0 mm 1 mps 627 mmHg 54%
    11:00 +8°C° 0 mm 1 mps 627 mmHg 53%
    12:00 +9°C° 0 mm 1 mps 627 mmHg 52%
    13:00 +9°C° 0 mm 1 mps 627 mmHg 54%
    14:00 +9°C° 0 mm 1 mps 626 mmHg 56%
    15:00 +8°C° 0 mm 2 mps 626 mmHg 59%
    16:00 +6°C° 0 mm 1 mps 624 mmHg 69%
    17:00 +3°C° 0 mm 1 mps 623 mmHg 80%
    18:00 0°C° 0 mm 1 mps 622 mmHg 90%
    19:00 0°C° 0 mm 1 mps 622 mmHg 90%
    20:00 -1°C° 0 mm 1 mps 622 mmHg 90%
    21:00 -2°C° 0 mm 0 mps 621 mmHg 90%
    22:00 -1°C° 0 mm 1 mps 621 mmHg 89%
    23:00 -1°C° 0 mm 1 mps 621 mmHg 88%

    Tomorrow, 27 February, Monday

    Time Temperature Precipitation Wind Pressure Humidity
    00:00 -1°C° 0 mm 1 mps 621 mmHg 86%
    01:00 -1°C° 0 mm 1 mps 620 mmHg 85%
    02:00 -1°C° 0 mm 1 mps 620 mmHg 83%
    03:00 -2°C° 0 mm 1 mps 619 mmHg 82%
    04:00 -1°C° 0 mm 1 mps 619 mmHg 82%
    05:00 -1°C° 0 mm 1 mps 619 mmHg 82%
    06:00 -1°C° 0 mm 1 mps 618 mmHg 83%
    07:00 +1°C° 0 mm 1 mps 619 mmHg 76%
    08:00 +3°C° 0 mm 1 mps 620 mmHg 70%
    09:00 +6°C° 0 mm 1 mps 621 mmHg 63%
    10:00 +6°C° 0 mm 2 mps 622 mmHg 59%
    11:00 +7°C° 0 mm 2 mps 622 mmHg 55%
    12:00 +9°C° 0 mm 2 mps 622 mmHg 50%
    13:00 +9°C° 0 mm 2 mps 622 mmHg 51%
    14:00 +8°C° 0 mm 2 mps 621 mmHg 51%
    15:00 +8°C° 0 mm 2 mps 621 mmHg 52%
    16:00 +6°C° 0 mm 2 mps 620 mmHg 63%
    17:00 +3°C° 0 mm 2 mps 619 mmHg 74%
    18:00 +2°C° 0 mm 1 mps 618 mmHg 85%
    19:00 +1°C° 0 mm 1 mps 618 mmHg 87%
    20:00 +1°C° 0 mm 1 mps 618 mmHg 88%
    21:00 0°C° 0 mm 1 mps 619 mmHg 89%
    22:00 0°C° 0 mm 1 mps 618 mmHg 89%
    23:00 0°C° 0 mm 1 mps 618 mmHg 89%

    Day after tomorrow, 28 February, Tuesday

    Time Temperature Precipitation Wind Pressure Humidity
    00:00 -1°C° 0 mm 1 mps 618 mmHg 89%
    01:00 -1°C° 0 mm 1 mps 617 mmHg 89%
    02:00 -1°C° 0 mm 1 mps 617 mmHg 89%
    03:00 -1°C° 0 mm 1 mps 617 mmHg 88%
    04:00 -1°C° 0 mm 1 mps 617 mmHg 88%
    05:00 -1°C° 0 mm 1 mps 617 mmHg 87%
    06:00 -1°C° 0 mm 1 mps 617 mmHg 87%
    07:00 +1°C° 0 mm 1 mps 617 mmHg 79%
    08:00 +3°C° 0 mm 1 mps 618 mmHg 72%
    09:00 +3°C° 0 mm 2 mps 619 mmHg 65%
    10:00 +4°C° 0 mm 2 mps 619 mmHg 62%
    11:00 +5°C° 0 mm 3 mps 620 mmHg 58%
    12:00 +6°C° 0 mm 4 mps 620 mmHg 55%
    13:00 +5°C° 0.3 mm 4 mps 620 mmHg 61%
    14:00 +4°C° 0.3 mm 4 mps 619 mmHg 66%
    15:00 +3°C° 0.3 mm 4 mps 619 mmHg 72%
    16:00 +1°C° 0.6 mm 4 mps 619 mmHg 76%
    17:00 0°C° 0.6 mm 4 mps 619 mmHg 80%
    18:00 0°C° 0.6 mm 3 mps 620 mmHg 85%
    19:00 -1°C° 0.1 mm 3 mps 620 mmHg 85%
    20:00 -2°C° 0.1 mm 3 mps 620 mmHg 85%
    21:00 -3°C° 0.1 mm 2 mps 620 mmHg 85%
    22:00 -3°C° 0 mm 2 mps 620 mmHg 83%
    23:00 -4°C° 0 mm 2 mps 620 mmHg 81%

    1 March, Wednesday

    Time Temperature Precipitation Wind Pressure Humidity
    00:00 -4°C° 0 mm 2 mps 620 mmHg 79%
    01:00 -5°C° 0 mm 2 mps 620 mmHg 78%
    02:00 -5°C° 0 mm 2 mps 620 mmHg 78%
    03:00 -6°C° 0 mm 2 mps 620 mmHg 78%
    04:00 -4°C° 0 mm 1 mps 620 mmHg 78%
    05:00 -4°C° 0 mm 1 mps 621 mmHg 78%
    06:00 -4°C° 0 mm 1 mps 621 mmHg 78%
    07:00 -1°C° 0 mm 1 mps 622 mmHg 73%
    08:00 +1°C° 0 mm 1 mps 624 mmHg 67%
    09:00 +4°C° 0 mm 1 mps 625 mmHg 62%
    10:00 +5°C° 0 mm 1 mps 626 mmHg 60%
    11:00 +6°C° 0 mm 1 mps 626 mmHg 58%
    12:00 +8°C° 0 mm 1 mps 626 mmHg 57%
    13:00 +7°C° 0 mm 2 mps 626 mmHg 58%
    14:00 +7°C° 0 mm 2 mps 626 mmHg 59%
    15:00 +7°C° 0 mm 2 mps 625 mmHg 61%
    16:00 +5°C° 0 mm 2 mps 625 mmHg 70%
    17:00 +4°C° 0 mm 1 mps 624 mmHg 80%
    18:00 +1°C° 0 mm 1 mps 623 mmHg 89%
    19:00 +1°C° 0 mm 1 mps 623 mmHg 91%
    20:00 +1°C° 0 mm 1 mps 624 mmHg 92%
    21:00 +1°C° 0 mm 1 mps 624 mmHg 93%
    22:00 0°C° 0 mm 1 mps 624 mmHg 93%
    23:00 0°C° 0 mm 1 mps 623 mmHg 92%

    2 March, Thursday

    Time Temperature Precipitation Wind Pressure Humidity
    00:00 -2°C° 0 mm 0 mps 623 mmHg 92%
    01:00 -2°C° 0 mm 0 mps 623 mmHg 92%
    02:00 -2°C° 0 mm 0 mps 623 mmHg 92%
    03:00 -3°C° 0 mm 0 mps 622 mmHg 92%
    04:00 -3°C° 0 mm 0 mps 622 mmHg 92%
    05:00 -3°C° 0 mm 0 mps 622 mmHg 92%
    06:00 -3°C° 0 mm 0 mps 622 mmHg 92%
    07:00 0°C° 0 mm 0 mps 624 mmHg 85%
    08:00 +4°C° 0 mm 1 mps 625 mmHg 78%
    09:00 +6°C° 0 mm 1 mps 626 mmHg 71%
    10:00 +7°C° 0 mm 1 mps 626 mmHg 66%
    11:00 +7°C° 0 mm 2 mps 626 mmHg 62%
    12:00 +8°C° 0 mm 2 mps 626 mmHg 57%
    13:00 +8°C° 0 mm 2 mps 626 mmHg 58%
    14:00 +8°C° 0 mm 2 mps 625 mmHg 58%
    15:00 +8°C° 0 mm 2 mps 625 mmHg 58%
    16:00 +6°C° 0 mm 2 mps 624 mmHg 68%
    17:00 +4°C° 0 mm 2 mps 622 mmHg 79%
    18:00 +2°C° 0 mm 2 mps 621 mmHg 89%
    19:00 +1°C° 0 mm 2 mps 621 mmHg 89%
    20:00 -1°C° 0 mm 2 mps 621 mmHg 90%
    21:00 -1°C° 0 mm 2 mps 621 mmHg 90%
    22:00 -1°C° 0 mm 2 mps 620 mmHg 91%
    23:00 -1°C° 0 mm 2 mps 620 mmHg 91%

    3 March, Friday

    Time Temperature Precipitation Wind Pressure Humidity
    00:00 -1°C° 0 mm 2 mps 620 mmHg 91%
    01:00 -1°C° 0 mm 2 mps 619 mmHg 91%
    02:00 -1°C° 0 mm 2 mps 619 mmHg 91%
    03:00 -1°C° 0 mm 2 mps 618 mmHg 91%
    04:00 -1°C° 0 mm 2 mps 618 mmHg 91%
    05:00 -1°C° 0 mm 2 mps 617 mmHg 90%
    06:00 -1°C° 0 mm 2 mps 617 mmHg 90%
    07:00 +1°C° 0.1 mm 2 mps 618 mmHg 85%
    08:00 +3°C° 0.1 mm 2 mps 618 mmHg 80%
    09:00 +4°C° 0.1 mm 2 mps 619 mmHg 76%
    10:00 +4°C° 0.2 mm 3 mps 619 mmHg 74%
    11:00 +4°C° 0.2 mm 3 mps 619 mmHg 72%
    12:00 +5°C° 0.2 mm 3 mps 619 mmHg 70%
    13:00 +5°C° 0.3 mm 3 mps 618 mmHg 69%
    14:00 +5°C° 0.3 mm 3 mps 618 mmHg 67%
    15:00 +5°C° 0.3 mm 3 mps 618 mmHg 66%
    16:00 +3°C° 0.2 mm 3 mps 617 mmHg 75%
    17:00 +2°C° 0.2 mm 2 mps 616 mmHg 83%
    18:00 +1°C° 0.2 mm 1 mps 615 mmHg 92%
    19:00 -1°C° 0 mm 2 mps 615 mmHg 91%
    20:00 -2°C° 0 mm 2 mps 615 mmHg 89%
    21:00 -2°C° 0 mm 2 mps 615 mmHg 88%
    22:00 -2°C° 0 mm 2 mps 614 mmHg 87%
    23:00 -2°C° 0 mm 2 mps 613 mmHg 85%
    Show more